When you browse on this site, cookies collect data to enhance your experience and personalize the content and advertising you see.
Visit our Privacy Policy to learn more. By continuing to use the site, you agree to this use of cookies and data.
  • In Lithuania
  • List of Countries
  • For 7 days
  • Water Temperature
  • Satellite Maps
  • Weather Map
  • Weather Widgets
  • user-avatar
    Login

    Hourly Weather Maturín

    Today, 21 April, Sunday

    Time Temperature Precipitation Wind Pressure Humidity
    00:00 +26°C° 0 mm 2 mps 756 mmHg 82%
    01:00 +26°C° 0 mm 2 mps 756 mmHg 85%
    02:00 +25°C° 0 mm 1 mps 756 mmHg 88%
    03:00 +25°C° 0 mm 1 mps 756 mmHg 89%
    04:00 +25°C° 0 mm 1 mps 756 mmHg 91%
    05:00 +24°C° 0 mm 1 mps 756 mmHg 93%
    06:00 +26°C° 0 mm 1 mps 756 mmHg 86%
    07:00 +27°C° 0 mm 2 mps 757 mmHg 78%
    08:00 +29°C° 0 mm 2 mps 757 mmHg 71%
    09:00 +31°C° 0 mm 2 mps 757 mmHg 62%
    10:00 +34°C° 0 mm 3 mps 757 mmHg 53%
    11:00 +36°C° 0 mm 3 mps 757 mmHg 45%
    12:00 +37°C° 0 mm 3 mps 756 mmHg 42%
    13:00 +37°C° 0 mm 3 mps 755 mmHg 39%
    14:00 +38°C° 0 mm 3 mps 755 mmHg 36%
    15:00 +37°C° 0 mm 4 mps 754 mmHg 39%
    16:00 +37°C° 0 mm 4 mps 754 mmHg 41%
    17:00 +36°C° 0 mm 5 mps 753 mmHg 44%
    18:00 +34°C° 0 mm 4 mps 754 mmHg 53%
    19:00 +32°C° 0 mm 4 mps 754 mmHg 63%
    20:00 +29°C° 0 mm 4 mps 755 mmHg 72%
    21:00 +28°C° 0 mm 3 mps 755 mmHg 76%
    22:00 +28°C° 0 mm 3 mps 756 mmHg 79%
    23:00 +27°C° 0 mm 2 mps 756 mmHg 82%

    Tomorrow, 22 April, Monday

    Time Temperature Precipitation Wind Pressure Humidity
    00:00 +27°C° 0 mm 2 mps 756 mmHg 85%
    01:00 +26°C° 0 mm 2 mps 755 mmHg 87%
    02:00 +26°C° 0 mm 2 mps 755 mmHg 89%
    03:00 +25°C° 0 mm 1 mps 755 mmHg 91%
    04:00 +25°C° 0 mm 1 mps 755 mmHg 92%
    05:00 +25°C° 0 mm 1 mps 755 mmHg 94%
    06:00 +26°C° 0 mm 1 mps 755 mmHg 86%
    07:00 +28°C° 0 mm 2 mps 755 mmHg 78%
    08:00 +29°C° 0 mm 2 mps 756 mmHg 71%
    09:00 +31°C° 0 mm 2 mps 756 mmHg 63%
    10:00 +32°C° 0 mm 2 mps 756 mmHg 56%
    11:00 +35°C° 0 mm 2 mps 756 mmHg 48%
    12:00 +35°C° 0 mm 3 mps 755 mmHg 47%
    13:00 +36°C° 0 mm 3 mps 754 mmHg 45%
    14:00 +36°C° 0 mm 3 mps 753 mmHg 44%
    15:00 +36°C° 0 mm 3 mps 752 mmHg 44%
    16:00 +36°C° 0 mm 4 mps 752 mmHg 44%
    17:00 +36°C° 0 mm 4 mps 752 mmHg 44%
    18:00 +34°C° 0 mm 4 mps 752 mmHg 51%
    19:00 +32°C° 0 mm 4 mps 753 mmHg 58%
    20:00 +29°C° 0 mm 3 mps 753 mmHg 65%
    21:00 +29°C° 0 mm 3 mps 754 mmHg 70%
    22:00 +28°C° 0 mm 3 mps 754 mmHg 76%
    23:00 +27°C° 0 mm 3 mps 755 mmHg 81%

    Day after tomorrow, 23 April, Tuesday

    Time Temperature Precipitation Wind Pressure Humidity
    00:00 +27°C° 0 mm 2 mps 755 mmHg 84%
    01:00 +26°C° 0 mm 2 mps 754 mmHg 87%
    02:00 +25°C° 0 mm 1 mps 754 mmHg 90%
    03:00 +25°C° 0 mm 1 mps 754 mmHg 92%
    04:00 +25°C° 0 mm 1 mps 754 mmHg 94%
    05:00 +24°C° 0 mm 1 mps 754 mmHg 96%
    06:00 +26°C° 0 mm 1 mps 754 mmHg 88%
    07:00 +27°C° 0 mm 1 mps 755 mmHg 80%
    08:00 +29°C° 0 mm 2 mps 755 mmHg 72%
    09:00 +31°C° 0 mm 2 mps 755 mmHg 61%
    10:00 +34°C° 0 mm 2 mps 755 mmHg 50%
    11:00 +37°C° 0 mm 2 mps 755 mmHg 39%
    12:00 +38°C° 0 mm 2 mps 754 mmHg 36%
    13:00 +39°C° 0 mm 2 mps 753 mmHg 32%
    14:00 +40°C° 0 mm 2 mps 752 mmHg 29%
    15:00 +39°C° 0 mm 3 mps 752 mmHg 32%
    16:00 +38°C° 0 mm 3 mps 752 mmHg 34%
    17:00 +37°C° 0 mm 4 mps 751 mmHg 37%
    18:00 +35°C° 0 mm 4 mps 752 mmHg 45%
    19:00 +33°C° 0 mm 4 mps 753 mmHg 52%
    20:00 +30°C° 0 mm 4 mps 753 mmHg 60%
    21:00 +29°C° 0 mm 3 mps 754 mmHg 66%
    22:00 +29°C° 0 mm 3 mps 755 mmHg 71%
    23:00 +28°C° 0 mm 2 mps 755 mmHg 76%

    24 April, Wednesday

    Time Temperature Precipitation Wind Pressure Humidity
    00:00 +27°C° 0 mm 2 mps 755 mmHg 79%
    01:00 +27°C° 0 mm 2 mps 754 mmHg 82%
    02:00 +26°C° 0 mm 1 mps 754 mmHg 85%
    03:00 +26°C° 0 mm 1 mps 754 mmHg 87%
    04:00 +26°C° 0 mm 1 mps 754 mmHg 88%
    05:00 +25°C° 0 mm 1 mps 754 mmHg 90%
    06:00 +27°C° 0 mm 1 mps 755 mmHg 83%
    07:00 +28°C° 0 mm 1 mps 755 mmHg 76%
    08:00 +30°C° 0 mm 2 mps 756 mmHg 69%
    09:00 +31°C° 0 mm 2 mps 756 mmHg 64%
    10:00 +32°C° 0 mm 2 mps 756 mmHg 58%
    11:00 +34°C° 0 mm 2 mps 756 mmHg 53%
    12:00 +35°C° 0 mm 2 mps 755 mmHg 48%
    13:00 +37°C° 0 mm 2 mps 754 mmHg 43%
    14:00 +38°C° 0 mm 2 mps 754 mmHg 38%
    15:00 +38°C° 0 mm 2 mps 753 mmHg 39%
    16:00 +38°C° 0 mm 3 mps 753 mmHg 39%
    17:00 +37°C° 0 mm 3 mps 753 mmHg 40%
    18:00 +35°C° 0.2 mm 3 mps 754 mmHg 49%
    19:00 +33°C° 0.2 mm 3 mps 755 mmHg 58%
    20:00 +30°C° 0.2 mm 4 mps 755 mmHg 67%
    21:00 +29°C° 0.1 mm 3 mps 756 mmHg 72%
    22:00 +29°C° 0.1 mm 3 mps 756 mmHg 76%
    23:00 +28°C° 0.1 mm 2 mps 756 mmHg 81%

    25 April, Thursday

    Time Temperature Precipitation Wind Pressure Humidity
    00:00 +27°C° 0.2 mm 2 mps 756 mmHg 84%
    01:00 +27°C° 0.2 mm 1 mps 755 mmHg 87%
    02:00 +27°C° 0.2 mm 1 mps 755 mmHg 90%
    03:00 +27°C° 0.5 mm 1 mps 755 mmHg 90%
    04:00 +26°C° 0.5 mm 1 mps 755 mmHg 91%
    05:00 +26°C° 0.5 mm 1 mps 755 mmHg 91%
    06:00 +26°C° 0.5 mm 1 mps 756 mmHg 90%
    07:00 +27°C° 0.5 mm 1 mps 756 mmHg 89%
    08:00 +27°C° 0.5 mm 1 mps 757 mmHg 88%
    09:00 +28°C° 0.4 mm 1 mps 757 mmHg 83%
    10:00 +29°C° 0.4 mm 1 mps 757 mmHg 78%
    11:00 +30°C° 0.4 mm 2 mps 757 mmHg 72%
    12:00 +30°C° 1.2 mm 2 mps 757 mmHg 72%
    13:00 +31°C° 1.2 mm 2 mps 756 mmHg 71%
    14:00 +31°C° 1.2 mm 2 mps 755 mmHg 70%
    15:00 +30°C° 0.8 mm 2 mps 755 mmHg 73%
    16:00 +30°C° 0.8 mm 2 mps 755 mmHg 76%
    17:00 +29°C° 0.8 mm 2 mps 755 mmHg 79%
    18:00 +28°C° 0.1 mm 2 mps 756 mmHg 83%
    19:00 +27°C° 0.1 mm 2 mps 756 mmHg 86%
    20:00 +27°C° 0.1 mm 2 mps 757 mmHg 90%
    21:00 +26°C° 0.2 mm 2 mps 757 mmHg 91%
    22:00 +26°C° 0.2 mm 1 mps 757 mmHg 92%
    23:00 +26°C° 0.2 mm 1 mps 757 mmHg 93%

    26 April, Friday

    Time Temperature Precipitation Wind Pressure Humidity
    00:00 +26°C° 0.5 mm 1 mps 757 mmHg 94%
    01:00 +26°C° 0.5 mm 1 mps 757 mmHg 95%
    02:00 +26°C° 0.5 mm 1 mps 756 mmHg 95%
    03:00 +26°C° 0.1 mm 1 mps 756 mmHg 95%
    04:00 +26°C° 0.1 mm 1 mps 756 mmHg 95%
    05:00 +26°C° 0.1 mm 1 mps 756 mmHg 95%
    06:00 +26°C° 0 mm 1 mps 757 mmHg 91%
    07:00 +27°C° 0 mm 2 mps 757 mmHg 86%
    08:00 +28°C° 0 mm 2 mps 757 mmHg 81%
    09:00 +30°C° 0 mm 2 mps 757 mmHg 71%
    10:00 +33°C° 0 mm 3 mps 757 mmHg 61%
    11:00 +35°C° 0 mm 3 mps 757 mmHg 51%
    12:00 +36°C° 0 mm 3 mps 756 mmHg 47%
    13:00 +37°C° 0 mm 3 mps 755 mmHg 44%
    14:00 +38°C° 0 mm 3 mps 754 mmHg 40%
    15:00 +37°C° 0 mm 4 mps 754 mmHg 42%
    16:00 +36°C° 0 mm 4 mps 754 mmHg 43%
    17:00 +36°C° 0 mm 4 mps 754 mmHg 45%
    18:00 +34°C° 0 mm 4 mps 754 mmHg 53%
    19:00 +32°C° 0 mm 4 mps 755 mmHg 61%
    20:00 +29°C° 0 mm 4 mps 755 mmHg 69%
    21:00 +28°C° 0 mm 3 mps 756 mmHg 74%
    22:00 +27°C° 0 mm 3 mps 756 mmHg 79%
    23:00 +27°C° 0 mm 2 mps 756 mmHg 85%
    Show more